Regional Weather Roundup
Issued by NWS Little Rock, AR

Home | Current Version | Previous Version | Text Only | Print | Product List | Glossary Off
Versions: 1 2 3 4 5 6 7 8 9 10 11 12 13 14 15 16 17 18 19 20 21 22 23 24 25 26 27 28 29 30 31 32 33 34 35 36 37 38 39 40 41 42 43 44 45 46 47 48 49

000
ASUS44 KLZK 030205
RWRLZK

WEATHER ROUNDUP FOR ARKANSAS
NATIONAL WEATHER SERVICE LITTLE ROCK AR
900 PM CDT WED SEP 02 2015

NOTE: "FAIR" INDICATES FEW OR NO CLOUDS BELOW 12,000 FEET WITH NO
SIGNIFICANT WEATHER AND/OR OBSTRUCTIONS TO VISIBILITY.

ARZ001-003-010-029-030300-
NORTHWEST ARKANSAS

CITY           SKY/WX    TMP DP  RH WIND       PRES   REMARKS
FAYETTEVILLE   CLEAR     71  69  93 CALM      30.01R
FORT SMITH     PTCLDY    83  64  52 SE3       29.95R
HARRISON       CLEAR     75  65  70 CALM      30.03R
BENTONVILLE    CLEAR     77  64  65 SE3       30.02R
ROGERS         CLEAR     76  67  73 SE3       30.03R
SILOAM SPGS    CLEAR     75  64  69 SE5       30.00R
HIGHFILL       CLEAR     78  68  71 CALM      30.01R
SPRINGDALE     CLEAR     77  68  73 CALM      30.03R
$$

ARZ004-005-016-030300-
NORTH CENTRAL ARKANSAS

CITY           SKY/WX    TMP DP  RH WIND       PRES   REMARKS
BATESVILLE     CLEAR     79  70  73 CALM      30.00R
FLIPPIN        CLEAR     81  64  57 CALM      29.99R
MTN HOME       CLEAR     78  68  71 SE3       30.00R
$$

ARZ040-041-030300-
WEST CENTRAL ARKANSAS

CITY           SKY/WX    TMP DP  RH WIND       PRES   REMARKS
MENA           CLEAR     79  68  69 CALM      30.01R
MOUNT IDA      CLEAR     79  68  69 CALM      29.98S
$$

ARZ009-017-025-026-028-030300-
NORTHEAST ARKANSAS

CITY           SKY/WX    TMP DP  RH WIND       PRES   REMARKS
JONESBORO      CLEAR     74  72  93 CALM      29.99R
NEWPORT        CLEAR     79  73  81 SE3       30.00R
WALNUT RIDGE   CLEAR     79  70  73 S3        29.99R
BLYTHEVILLE    CLEAR     79  73  82 S3        29.99R
$$

ARZ022-023-033-042-044-030300-
CENTRAL ARKANSAS

CITY           SKY/WX    TMP DP  RH WIND       PRES   REMARKS
LITTLE ROCK    CLEAR     78  70  76 CALM      29.99R
N LITTLE ROCK  CLEAR     74  73  93 SW5       29.99R
SEARCY         CLEAR     78  71  79 CALM      30.01R
HOT SPRINGS    CLEAR     78  68  71 E3        30.00R
RUSSELLVILLE   CLEAR     77  68  73 CALM      29.99R
$$

ARZ036-030300-
EAST ARKANSAS

CITY           SKY/WX    TMP DP  RH WIND       PRES   REMARKS
WEST MEMPHIS   CLEAR     75  73  93 S3        29.99R
$$

ARZ050-053-066-070-073-030300-
SOUTHWEST ARKANSAS

CITY           SKY/WX    TMP DP  RH WIND       PRES   REMARKS
ARKADELPHIA    FAIR      74  71  90 CALM      30.00R
CAMDEN         PTCLDY    73  68  83 CALM      29.99R
TEXARKANA      CLEAR     82  66  58 SE6       29.98R
EL DORADO      CLEAR     75  69  81 CALM      29.99R
DE QUEEN       CLEAR     81  69  67 SE5       29.95R
$$

ARZ056-057-069-030300-
SOUTHEAST ARKANSAS

CITY           SKY/WX    TMP DP  RH WIND       PRES   REMARKS
PINE BLUFF     CLEAR     75  72  90 CALM      29.99R
STUTTGART      CLEAR     79  66  65 CALM      30.00R
MONTICELLO     CLEAR     74  74 100 CALM      29.99R

$$





USA.gov is the U.S. government's official web portal to all federal, state and local government web resources and services.